LEGRLEAL

Guest
Details From LEGR - Granada
To LEAL - Alicante
Flight Number -
Tags generated
Created
Modified
Stats Distance 167 nm / 309 km
Max Altitude 19,600 ft / 5,974 m
Waypoints 3
Social Downloads 0
Likes 0
Share VATSIM

Download

Looking for another format? Having issues loading an existing format? Contact us
Advertisement - Login to hide

Notes

Basic altitude profile: - Ascent Rate: 2500ft/min - Ascent Speed: 100kts - Cruise Altitude: 35000ft - Cruise Speed: 120kts - Descent Rate: 1500ft/min - Descent Speed: 90kts Options: - Use NATs: no - Use PACOTS: no - Use low airways: yes - Use high airways: no

Route

LEGR TOSGA LEAL

ID Type Via Altitude Latitude Longitude Leg Dist Tot Dist Heading (true) Name
O LEGR APT - 0 ft / 0 m 37.18873˚ -3.77736˚ - 0 nm - Granada
TOSGA FIX - 19,600 ft / 5,974 m 37.62567˚ -2.30736˚ 74 nm 74 nm 69° / 70° -
O LEAL APT - 0 ft / 0 m 38.28217˚ -0.55816˚ 91 nm 166 nm 64° / 65° Alicante

Altitude Profile

Advertisement - Login to hide

Weather


0- 5 10 15 20 25 30 35+ Temperature / ° C

Clouds and Precipitation
Forecast for 2018-05-26 18:00 UTC. Updated 3 hours ago

Ground ~20,000 ft ~40,000 ft Winds

LEGR

Details ICAO LEGR (GRX)
Name Granada
Region Spain
Timezone Europe/Madrid (UTC+2.0)
Stats Elevation 1,859 ft / 567 m (AMSL)
Location 37.188731° -3.777359°
Runways 1
Magnetic Variation 0.626° W

METAR

LEGR 261930Z 28006KT 9999 FEW080 21/10 Q1013

Decode

TAF

TAF LEGR 261400Z 2615/2715 24006KT 9999 SCT040 TX26/2615Z TN13/2704Z TEMPO 2704/2715 4000 SHRA SCT030TCU

Decode

Departure Runways

ID Width Length Bearing (true) Bearing (mag) Surface Threshold Offset Overrun Length
09 147 ft / 45 m 9,511 ft / 2,899 m 89.46° 90.09° Asphalt 0 ft / 0 m 0 ft / 0 m
27 147 ft / 45 m 9,511 ft / 2,899 m 269.48° 270.11° Asphalt 0 ft / 0 m 0 ft / 0 m

LEAL

Details ICAO LEAL (ALC)
Name Alicante
Region Spain
Timezone Europe/Madrid (UTC+2.0)
Stats Elevation 141 ft / 43 m (AMSL)
Location 38.282169° -0.558157°
Runways 1
Magnetic Variation 0.233° E

METAR

LEAL 261930Z 09005KT 9999 FEW012 20/17 Q1013 NOSIG

Decode

TAF

TAF TAF LEAL 261700Z 2618/2718 09009KT 9999 FEW030 TX25/2712Z TN16/2706Z BECMG 2618/2621 VRB03KT PROB30 TEMPO 2622/2706 BKN012 BECMG 2707/2710 17012KT

Decode

Destination Runways

ID Width Length Bearing (true) Bearing (mag) Surface Threshold Offset Overrun Length
10 148 ft / 45 m 9,799 ft / 2,987 m 100.07° 99.84° Asphalt 0 ft / 0 m 164 ft / 50 m
28 148 ft / 45 m 9,799 ft / 2,987 m 280.09° 279.86° Asphalt 0 ft / 0 m 197 ft / 60 m

Approach Navaids

Runway Type Ident Frequency Range Bearing (true) Bearing (mag) Slope Elevation
10 Localiser IAT 110.30 MHz 18 nm / 33 km 100.09° 99.86° - 29 ft / 9 m (AMSL)
10 Glidescope IAT 110.30 MHz 10 nm / 19 km 100.09° 99.86° 3.00° 129 ft / 39 m (AMSL)
10 DME IAT 110.30 MHz 18 nm / 33 km - - - 129 ft / 39 m (AMSL)

Popular Alternatives